Regional Weather Roundup
Issued by NWS

Home | Current Version | Previous Version | Graphics & Text | Print | Product List | Glossary On
Versions: 1 2 3 4 5 6 7 8 9 10 11 12 13 14 15 16 17 18 19 20 21 22 23 24 25 26 27 28 29 30 31 32 33 34 35 36 37 38 39 40 41 42 43 44 45 46 47 48 49 50
000
ASUS45 KBOU 220007
RWRCO

WEATHER ROUNDUP FOR COLORADO
NATIONAL WEATHER SERVICE DENVER/BOULDER CO
600 PM MDT MON JUL 21 2014

NOTE: "FAIR" INDICATES FEW OR NO CLOUDS BELOW 12000 FEET WITH NO
SIGNIFICANT WEATHER AND/OR OBSTRUCTIONS TO VISIBILITY.

COZ001>005-013-030-031-220100-
...NORTHWEST COLORADO...

CITY           SKY/WX    TMP DP  RH WIND       PRES   REMARKS
CRAIG          MOSUNNY   84  33  16 W39G55    30.21R
HAYDEN         MOSUNNY   82  36  18 NW9       30.24R
MEEKER         MOSUNNY   89  30  12 SW10      30.20F
MOUNT WERNER   NOT AVBL
STEAMBOAT SPGS MOSUNNY   85  35  16 CALM      30.25S
WALDEN         MOSUNNY   79  34  19 SW12      30.37S
$$

COZ006>008-011-220100-
...WEST CENTRAL VALLEYS...

CITY           SKY/WX    TMP DP  RH WIND       PRES   REMARKS
GRAND JUNCTION MOSUNNY   95  21   7 NW16      30.08S
MONTROSE       PTSUNNY   94  31  10 W10       30.18F
EAGLE          MOSUNNY   88  37  16 S14       30.24F
RIFLE          MOSUNNY   93  28  10 W14G22    30.12F
DELTA          PTSUNNY   98  29   9 S8        30.11F
NUCLA          PTSUNNY   91  25   9 SW8G17    30.23F
$$

COZ017>023-064>068-220100-
...SOUTHWEST COLORADO...

CITY           SKY/WX    TMP DP  RH WIND       PRES   REMARKS
DURANGO        MOSUNNY   87  30  13 W12G21    30.25F
CORTEZ         SUNNY     89  30  12 W15       30.22F
PAGOSA SPRINGS MOSUNNY   85  25  11 SW9G16    30.34F
TELLURIDE      PTSUNNY   77  28  16 W16       30.47S
WOLF CREEK PAS NOT AVBL
$$

COZ009-010-012-014-032>034-037-058>063-220100-
...CENTRAL COLORADO...

CITY           SKY/WX    TMP DP  RH WIND       PRES   REMARKS
ASPEN          PTSUNNY   80  28  15 VRB3      30.35S
BUENA VISTA    PTSUNNY   80  31  17 S10       30.35S
COPPER MTN     PTSUNNY   64  34  32 W14G20    30.74S
BERTHOUD PASS  FAIR      55  43  62 MISG      30.79S
COTTONWOOD PAS PTSUNNY   75  19  12 W9G21     30.53F
GUNNISON       PTSUNNY   81  37  21 N9        30.37S
KREMMLING      MOSUNNY   84  23  10 SW9       30.31F
LEADVILLE      PTSUNNY   69  32  25 NW12      30.53S
MONARCH PASS   PTSUNNY   61  34  36 SW13      30.83F
SALIDA         PTSUNNY  N/A N/A N/A NE12      30.40R
SUNLIGHT       PTSUNNY   73  37  27 CALM      30.64S
WILKERSON PASS PTSUNNY   66  30  26 W5        30.68S
$$

COZ069>075-220100-
...SAN LUIS VALLEY/SANGRE DE CRISTO MOUNTAINS...

CITY           SKY/WX    TMP DP  RH WIND       PRES   REMARKS
ALAMOSA        PTSUNNY   81  42  25 NW10      30.33S
LA VETA PASS   PTSUNNY   63  43  48 E7        30.58F
SAGUACHE       PTSUNNY   72  45  37 NW12      30.40R
$$

COZ035-036-038>040-220100-
...NORTHERN COLORADO FRONT RANGE...

CITY           SKY/WX    TMP DP  RH WIND       PRES   REMARKS
DENVER INTL AP MOSUNNY   92  36  14 E8        30.11F
DMNS CITY PARK   N/A     92  38  15 S1        30.10F
AURORA         MOSUNNY   91  40  16 SE8       30.14F
FRONT RANGE AP NOT AVBL
ERIE MUNI ARPT MOSUNNY   92  35  13 SE5       30.08S
BOULDER MUN AP MOSUNNY   91  39  16 S7        30.10R
CENTENNIAL     MOSUNNY   90  34  13 E8        30.16S
BROOMFIELD     PTSUNNY   93  37  14 S8        30.14
FORT COLLINS   PTSUNNY   93  43  17 N10       30.06
LONGMONT       PTSUNNY   94  45  18 N14       30.10R
$$

COZ041-046-047-076>085-087-088-220100-
...PIKES PEAK/PALMER DIVIDE AND SOUTHERN FOOTHILLS...

CITY           SKY/WX    TMP DP  RH WIND       PRES   REMARKS
COLO. SPRINGS  PTSUNNY   84  46  26 S15       30.22F
A. F. ACADEMY  MOSUNNY   83  42  23 SE18      30.24S
ELLICOTT       PTSUNNY   83  44  25 W10       30.21F
FALCON         PTSUNNY   81  41  24 S13       30.29F
FORT CARSON    PTSUNNY   85  49  28 VRB7      30.19F
LIMON          MOSUNNY   90  38  16 S3        30.13S
MONUMENT HILL  MOSUNNY   82  37  20 SE12      30.28F
TRINIDAD       CLOUDY    78  53  41 W13       30.23S
$$

COZ042>045-048>051-090-091-220100-
...NORTHEAST COLORADO...

CITY           SKY/WX    TMP DP  RH WIND       PRES   REMARKS
GREELEY ARPT   PTSUNNY   88  48  25 N10       30.07S
AKRON          MOSUNNY   96  37  12 NE5       30.06S
BURLINGTON     MOSUNNY   93  54  26 VRB5      30.04R
WRAY             N/A    102  40  11 SE6       29.97S
STERLING       MOSUNNY   93  61  33 SW6       29.99S
HOLYOKE        SUNNY     95  61  31 S7        29.98S
FORT MORGAN    MOSUNNY   94  45  18 SE7       30.06S
$$

COZ086-089-092>099-220100-
...SOUTHEAST COLORADO...

CITY           SKY/WX    TMP DP  RH WIND       PRES   REMARKS
PUEBLO         CLOUDY    91  46  21 SW8       30.10R
LA JUNTA       CLOUDY    89  53  29 SW20G26   30.06R
LAMAR          PTSUNNY   92  53  26 S28G41    29.97R
SPRINGFIELD      N/A     80  56  43 W18G26    30.06F
$$



USA.gov is the U.S. government's official web portal to all federal, state and local government web resources and services.